Wind_Speed
64 61 57 53 49 45 41 36 30 23 20 21 22 22 25 33 44 59 75 89 101 110 119 126 129 130 128 124 120 116 112 108 103 99 93 87 79 72
62 59 55 51 47 44 40 36 32 26 20 19 20 21 23 28 38 51 65 79 92 101 111 120 126 129 128 126 122 118 114 109 105 100 96 91 82 75
60 57 53 50 46 43 39 35 32 28 22 18 19 19 20 25 34 44 56 69 81 92 102 112 121 126 128 127 124 120 116 112 107 102 98 94 87 79
58 55 52 47 45 41 37 34 31 28 23 18 17 17 18 22 30 39 49 60 71 83 93 104 114 122 126 127 125 122 118 114 109 105 100 96 91 83
56 53 50 46 43 40 36 33 30 27 23 18 15 15 16 20 27 36 44 53 62 73 84 94 105 116 123 126 125 123 119 115 110 106 103 99 94 87
54 52 48 44 41 38 35 32 29 26 22 18 15 13 13 18 25 33 41 49 56 65 74 84 96 107 118 124 124 123 120 117 113 109 105 101 96 90
53 51 47 42 40 37 34 31 27 24 21 18 14 12 12 16 24 31 39 45 51 58 66 76 87 99 111 120 124 123 121 118 115 110 106 103 98 93
51 49 46 41 38 36 33 30 28 25 21 18 14 11 11 15 23 30 37 43 47 52 60 69 79 90 103 114 121 123 122 119 116 112 108 104 100 95
51 48 45 40 36 33 31 29 27 24 21 18 14 11 10 14 22 29 35 41 45 49 53 60 71 81 94 107 117 122 122 120 117 113 109 105 101 97
50 47 44 39 34 32 30 28 27 24 21 18 14 11 10 13 21 28 34 39 42 45 49 54 64 74 87 100 111 119 121 120 118 114 111 107 103 99
49 46 43 39 34 31 29 27 26 24 21 18 14 11 10 13 20 26 32 37 40 43 45 49 57 67 80 91 104 114 119 120 118 115 112 108 104 100
48 45 43 38 33 29 27 26 25 23 21 19 15 11 9 12 19 26 31 36 39 41 43 46 52 62 72 85 96 108 116 119 118 116 113 109 106 102
47 44 42 38 33 28 26 25 24 23 21 18 15 11 8 11 17 24 30 35 38 40 42 44 49 57 67 79 91 102 111 116 117 116 114 110 106 102
46 43 41 38 33 28 25 23 23 22 20 18 15 12 8 8 14 22 28 33 37 40 41 42 46 53 62 73 85 96 106 113 116 115 113 111 107 102
45 42 40 38 33 28 25 22 21 21 20 18 15 12 7 6 11 18 25 31 35 38 40 42 45 51 60 69 79 91 101 109 114 114 113 110 107 103
44 42 40 38 34 30 25 22 20 19 18 17 15 12 7 4 8 14 21 28 33 36 39 41 45 51 58 66 75 85 96 105 111 113 112 109 106 103
42 41 39 37 35 30 26 23 20 18 17 16 15 12 7 3 5 11 17 24 31 34 36 40 44 50 58 65 72 81 91 100 106 110 110 107 105 102
40 39 38 36 34 30 25 23 20 18 16 15 13 11 7 3 2 9 15 22 27 32 35 38 44 50 57 63 70 77 86 94 101 106 108 106 103 101
39 38 37 35 34 30 26 22 20 17 14 13 11 9 7 4 2 8 14 20 26 30 33 37 43 48 55 61 66 74 81 88 95 101 104 102 100 98
38 37 36 34 33 30 26 23 20 17 13 11 10 8 6 4 3 7 14 20 26 29 31 36 41 45 51 58 62 69 77 84 90 95 98 97 96 94
37 36 35 33 32 30 27 23 20 16 12 10 8 6 4 4 5 8 13 19 24 28 33 37 40 44 48 54 59 65 73 79 83 88 93 95 93 91
35 34 34 33 31 30 27 23 20 16 12 9 6 5 3 4 6 9 13 18 25 31 34 36 40 43 46 52 59 64 70 76 79 83 87 89 89 88
34 33 33 32 30 29 27 24 20 16 11 7 5 4 3 4 7 10 14 18 25 31 33 35 39 42 47 52 58 62 66 72 76 80 83 85 82 80
Wind_Direction
340 340 339 339 338 337 336 334 332 325 308 289 277 263 245 229 221 215 210 209 208 208 208 206 205 205 205 205 205 205 205 205 205 204 204 203 205 208
341 341 340 340 339 338 337 335 332 328 318 296 283 268 249 232 222 216 212 209 209 209 209 207 206 205 205 204 204 204 205 205 205 205 204 204 204 207
342 342 342 342 341 339 337 335 332 329 324 305 290 272 252 233 222 216 212 210 209 210 210 208 207 205 204 204 204 204 204 204 204 204 204 204 204 206
344 343 343 343 342 341 339 336 333 330 326 313 294 277 254 233 220 214 211 210 210 210 210 210 208 206 204 203 203 203 203 203 203 204 204 204 204 206
345 345 345 345 344 344 342 338 336 332 327 318 301 283 255 231 217 211 208 208 209 210 210 210 209 207 205 203 203 202 203 203 203 203 204 204 204 205
345 346 346 346 346 346 345 342 339 335 330 322 307 287 258 229 215 209 205 205 207 209 210 210 210 208 206 204 202 202 202 202 203 203 204 204 205 205
347 347 347 347 347 347 347 346 344 340 336 328 312 293 261 228 213 206 203 203 204 207 209 209 210 209 207 205 202 202 202 202 202 202 203 204 204 205
348 348 348 347 347 348 349 348 347 344 339 331 319 298 264 227 211 205 201 200 201 205 208 209 210 209 208 206 203 202 201 201 202 202 203 204 204 205
349 349 348 347 348 349 349 349 348 345 341 334 321 301 268 229 210 204 201 199 200 202 205 208 209 209 209 207 204 202 201 201 201 202 202 203 204 205
350 350 350 348 348 348 349 349 349 347 343 336 324 302 269 231 211 203 201 200 200 201 203 206 208 209 209 208 206 203 202 201 201 201 202 203 204 205
350 350 351 350 348 348 349 349 349 348 345 341 329 305 271 234 213 204 201 200 200 199 201 205 207 208 208 208 206 204 202 201 201 201 202 202 204 205
350 351 351 351 349 348 349 349 349 348 347 343 335 314 271 236 216 206 202 201 200 199 200 203 206 207 207 207 206 205 203 201 201 201 201 202 203 205
351 352 352 352 350 349 349 350 350 350 348 344 338 325 286 239 217 207 203 201 200 200 200 202 204 205 206 205 205 205 203 202 201 201 201 202 203 205
352 353 353 353 353 351 350 350 351 351 350 347 342 332 304 247 218 207 203 202 201 200 200 201 203 203 203 204 204 204 203 202 201 201 202 202 203 204
352 353 354 355 355 355 353 352 352 353 353 351 348 339 318 261 219 207 202 201 201 200 200 200 200 200 200 200 202 203 203 202 201 201 202 203 203 204
351 353 355 356 357 357 356 355 354 355 356 355 355 350 335 276 219 204 201 199 198 198 198 199 198 196 195 197 198 200 202 201 201 201 201 202 203 204
351 353 355 357 358 357 356 356 356 357 358 358 358 358 353 317 218 200 197 197 195 193 194 196 195 193 191 192 194 197 200 201 201 201 201 202 203 204
351 353 355 357 358 358 357 357 357 358 360 1 2 4 5 0 201 190 187 186 187 188 190 191 190 189 188 189 191 193 197 199 200 201 201 202 203 204
351 353 355 357 358 359 359 358 358 359 1 4 6 10 15 24 133 171 173 175 178 181 183 184 184 185 184 184 187 190 193 196 199 201 201 202 203 205
351 353 354 356 358 359 359 358 358 360 3 7 13 20 33 57 114 158 168 170 173 175 175 176 177 179 181 181 183 186 190 193 197 199 200 201 203 204
351 352 354 355 357 359 359 358 358 360 3 9 17 29 56 96 131 154 165 170 172 172 171 171 172 174 177 179 181 183 185 189 193 197 199 200 201 203
350 352 353 354 356 358 359 359 358 360 4 10 20 36 79 132 151 163 167 171 173 170 169 171 173 173 175 177 178 179 181 184 188 194 198 201 202 203
350 351 353 354 355 357 359 358 358 359 2 10 22 41 97 148 161 169 172 172 173 174 174 173 173 174 174 175 176 176 179 182 186 190 194 198 201 204
Height
5373 5357 5341 5327 5314 5302 5292 5283 5277 5272 5268 5263 5260 5259 5259 5263 5268 5276 5289 5306 5324 5344 5366 5391 5419 5447 5476 5503 5529 5555 5578 5600 5621 5641 5660 5677 5692 5706
5368 5353 5338 5324 5311 5300 5290 5281 5274 5268 5265 5260 5257 5255 5255 5258 5263 5272 5283 5297 5314 5332 5353 5376 5402 5429 5458 5486 5513 5539 5563 5586 5608 5629 5648 5666 5681 5696
5364 5349 5335 5321 5309 5297 5288 5279 5272 5265 5261 5258 5254 5252 5252 5255 5260 5267 5277 5290 5305 5322 5341 5362 5386 5412 5440 5469 5496 5522 5547 5571 5594 5616 5635 5654 5671 5686
5362 5347 5333 5319 5307 5296 5286 5277 5270 5263 5258 5255 5252 5250 5250 5252 5257 5263 5273 5285 5299 5314 5331 5350 5372 5397 5424 5452 5479 5506 5532 5556 5580 5602 5624 5644 5661 5674
5358 5344 5331 5318 5306 5295 5285 5276 5269 5262 5257 5253 5250 5248 5248 5250 5254 5261 5270 5281 5293 5307 5323 5341 5361 5383 5408 5435 5462 5490 5518 5545 5570 5591 5609 5628 5647 5663
5355 5342 5329 5316 5305 5294 5284 5276 5268 5262 5256 5252 5249 5247 5247 5249 5252 5259 5267 5277 5289 5302 5317 5333 5351 5372 5396 5423 5453 5480 5506 5528 5551 5575 5596 5616 5635 5652
5353 5339 5326 5315 5304 5293 5284 5276 5268 5262 5256 5252 5249 5247 5246 5248 5251 5257 5265 5274 5285 5297 5311 5326 5344 5364 5385 5411 5436 5463 5490 5515 5539 5562 5584 5604 5623 5641
5350 5338 5325 5314 5303 5293 5284 5276 5268 5262 5256 5252 5249 5247 5246 5247 5250 5255 5262 5271 5283 5294 5307 5321 5337 5356 5376 5399 5424 5450 5476 5501 5526 5549 5571 5592 5612 5630
5348 5336 5324 5313 5303 5294 5285 5277 5269 5262 5257 5253 5249 5247 5246 5246 5249 5254 5261 5269 5279 5290 5302 5317 5331 5348 5366 5388 5412 5437 5463 5488 5513 5537 5559 5581 5601 5619
5346 5334 5323 5312 5302 5293 5285 5277 5270 5263 5257 5253 5249 5246 5245 5246 5248 5253 5259 5267 5276 5287 5298 5311 5325 5341 5357 5378 5401 5426 5452 5477 5501 5525 5548 5569 5590 5608
5345 5333 5322 5311 5302 5293 5285 5277 5270 5264 5257 5252 5248 5246 5244 5245 5247 5252 5258 5265 5274 5284 5295 5307 5319 5334 5350 5371 5393 5416 5441 5466 5490 5514 5536 5558 5578 5597
5344 5332 5321 5310 5301 5292 5285 5278 5271 5264 5258 5252 5248 5245 5244 5244 5246 5250 5255 5263 5271 5281 5292 5302 5313 5326 5343 5361 5382 5405 5429 5454 5479 5502 5525 5546 5566 5584
5343 5331 5320 5310 5301 5292 5285 5278 5271 5264 5258 5253 5248 5245 5243 5243 5244 5248 5253 5260 5268 5277 5287 5297 5308 5320 5335 5353 5372 5395 5419 5443 5468 5491 5513 5534 5555 5575
5342 5330 5320 5310 5300 5292 5284 5277 5271 5265 5259 5253 5249 5245 5242 5241 5243 5246 5251 5257 5264 5273 5282 5292 5303 5315 5329 5345 5365 5386 5410 5433 5457 5481 5503 5524 5544 5564
5340 5330 5319 5309 5300 5292 5284 5278 5271 5265 5259 5254 5249 5245 5242 5241 5242 5244 5248 5254 5261 5269 5278 5287 5297 5308 5322 5339 5357 5377 5399 5423 5446 5470 5492 5513 5535 5555
5339 5329 5318 5309 5299 5291 5284 5278 5272 5266 5261 5255 5250 5246 5243 5242 5242 5243 5246 5251 5258 5266 5274 5283 5292 5303 5317 5332 5349 5369 5390 5413 5437 5461 5484 5506 5526 5547
5338 5328 5318 5308 5299 5291 5284 5278 5272 5267 5262 5257 5252 5248 5245 5243 5242 5243 5246 5250 5256 5263 5271 5279 5288 5299 5311 5325 5342 5362 5384 5407 5430 5453 5475 5496 5517 5539
5337 5327 5318 5309 5300 5292 5285 5279 5273 5268 5263 5259 5254 5250 5247 5245 5244 5245 5247 5250 5255 5262 5269 5277 5286 5296 5308 5323 5339 5357 5378 5401 5424 5446 5468 5489 5510 5530
5336 5327 5318 5309 5300 5293 5286 5280 5274 5269 5265 5261 5257 5253 5251 5249 5248 5248 5249 5252 5257 5263 5269 5276 5285 5295 5308 5322 5337 5354 5375 5396 5417 5439 5462 5484 5505 5525
5335 5326 5317 5309 5301 5293 5286 5280 5275 5270 5266 5263 5259 5256 5254 5253 5252 5252 5253 5256 5260 5265 5271 5278 5287 5297 5308 5321 5336 5352 5370 5391 5412 5435 5457 5478 5499 5519
5334 5325 5317 5309 5301 5294 5287 5281 5276 5271 5268 5264 5262 5260 5258 5257 5256 5257 5258 5261 5265 5269 5275 5282 5290 5300 5310 5322 5335 5350 5368 5388 5410 5432 5453 5472 5489 5506
5333 5325 5317 5309 5301 5294 5287 5282 5276 5272 5269 5266 5264 5262 5261 5261 5261 5262 5263 5266 5269 5274 5280 5286 5294 5303 5312 5324 5337 5351 5368 5387 5407 5427 5450 5470 5486 5503
5331 5324 5316 5309 5301 5295 5288 5282 5277 5273 5270 5267 5266 5265 5264 5264 5265 5266 5268 5270 5274 5279 5284 5291 5298 5306 5316 5326 5339 5353 5369 5386 5404 5423 5444 5464 5485 5506